Time,TemperatureF,DewpointF,PressureIn,WindDirection,WindDirectionDegrees,WindSpeedMPH,WindSpeedGustMPH,Humidity,HourlyPrecipIn,Conditions,Clouds,dailyrainin,SolarRadiationWatts/m^2,SoftwareType,DateUTC
2013-10-02 00:03:00,35.0,28.0,-100.00,NW,307,2.0,4.0,76,0.00,,,0.00,0.000000,,2013-10-02 08:03:00,
2013-10-02 00:11:00,35.0,28.0,-100.00,NW,307,2.0,4.0,76,0.00,,,0.00,0.000000,,2013-10-02 08:11:00,
2013-10-02 00:22:00,35.0,28.0,-100.00,NW,307,2.0,4.0,76,0.00,,,0.00,0.000000,,2013-10-02 08:22:00,
2013-10-02 00:32:00,35.0,28.0,-100.00,NW,307,2.0,4.0,76,0.00,,,0.00,0.000000,,2013-10-02 08:32:00,
2013-10-02 00:33:00,34.0,28.0,-100.00,NW,317,3.0,6.0,79,0.00,,,0.00,0.000000,,2013-10-02 08:33:00,
2013-10-02 00:52:00,34.0,28.0,-100.00,NW,317,3.0,6.0,79,0.00,,,0.00,0.000000,,2013-10-02 08:52:00,
2013-10-02 01:01:00,34.0,28.0,-100.00,NW,317,3.0,6.0,79,0.00,,,0.00,0.000000,,2013-10-02 09:01:00,
2013-10-02 01:11:00,34.0,28.0,-100.00,NW,317,3.0,6.0,79,0.00,,,0.00,0.000000,,2013-10-02 09:11:00,
2013-10-02 01:21:00,34.0,28.0,-100.00,NW,317,3.0,6.0,79,0.00,,,0.00,0.000000,,2013-10-02 09:21:00,
2013-10-02 01:54:00,34.0,28.0,-100.00,North,351,3.0,4.0,79,0.00,,,0.00,0.000000,,2013-10-02 09:54:00,
2013-10-02 02:03:00,34.0,28.0,-100.00,North,351,3.0,4.0,79,0.00,,,0.00,0.000000,,2013-10-02 10:03:00,
2013-10-02 02:12:00,34.0,28.0,-100.00,North,351,3.0,4.0,79,0.00,,,0.00,0.000000,,2013-10-02 10:12:00,
2013-10-02 02:23:00,34.0,28.0,-100.00,North,351,3.0,4.0,79,0.00,,,0.00,0.000000,,2013-10-02 10:23:00,
2013-10-02 02:32:00,34.0,28.0,-100.00,North,351,3.0,4.0,79,0.00,,,0.00,0.000000,,2013-10-02 10:32:00,
2013-10-02 02:33:00,35.0,29.0,-100.00,NNE,18,4.0,6.0,77,0.00,,,0.00,0.000000,,2013-10-02 10:33:00,
2013-10-02 03:12:00,35.0,29.0,-100.00,NNE,18,4.0,6.0,77,0.00,,,0.00,0.000000,,2013-10-02 11:12:00,
2013-10-02 03:21:00,35.0,29.0,-100.00,NNE,18,4.0,6.0,77,0.00,,,0.00,0.000000,,2013-10-02 11:21:00,
2013-10-02 03:52:00,35.0,29.0,-100.00,NNE,17,2.0,4.0,77,0.00,,,0.00,0.000000,,2013-10-02 11:52:00,
2013-10-02 04:02:00,35.0,29.0,-100.00,NNE,17,2.0,4.0,77,0.00,,,0.00,0.000000,,2013-10-02 12:02:00,
2013-10-02 04:12:00,35.0,29.0,-100.00,NNE,17,2.0,4.0,77,0.00,,,0.00,0.000000,,2013-10-02 12:12:00,
2013-10-02 04:21:00,35.0,29.0,-100.00,NNE,17,2.0,4.0,77,0.00,,,0.00,0.000000,,2013-10-02 12:21:00,
2013-10-02 04:32:00,35.0,29.0,-100.00,NNE,17,2.0,4.0,77,0.00,,,0.00,0.000000,,2013-10-02 12:32:00,
2013-10-02 04:52:00,35.0,29.0,-100.00,NNW,346,1.0,4.0,77,0.00,,,0.00,0.000000,,2013-10-02 12:52:00,
2013-10-02 05:02:00,35.0,29.0,-100.00,NNW,346,1.0,4.0,77,0.00,,,0.00,0.000000,,2013-10-02 13:02:00,
2013-10-02 05:11:00,35.0,29.0,-100.00,NNW,346,1.0,4.0,77,0.00,,,0.00,0.000000,,2013-10-02 13:11:00,
2013-10-02 05:22:00,35.0,29.0,-100.00,NNW,346,1.0,4.0,77,0.00,,,0.00,0.000000,,2013-10-02 13:22:00,
2013-10-02 05:31:00,35.0,29.0,-100.00,NNW,346,1.0,4.0,77,0.00,,,0.00,0.000000,,2013-10-02 13:31:00,
2013-10-02 05:52:00,35.0,28.0,-100.00,NW,326,3.0,5.0,76,0.00,,,0.00,0.000000,,2013-10-02 13:52:00,
2013-10-02 06:02:00,35.0,28.0,-100.00,NW,326,3.0,5.0,76,0.00,,,0.00,0.000000,,2013-10-02 14:02:00,
2013-10-02 06:11:00,35.0,28.0,-100.00,NW,326,3.0,5.0,76,0.00,,,0.00,0.000000,,2013-10-02 14:11:00,
2013-10-02 06:21:00,35.0,28.0,-100.00,NW,326,3.0,5.0,76,0.00,,,0.00,0.000000,,2013-10-02 14:21:00,
2013-10-02 06:32:00,35.0,28.0,-100.00,NW,326,3.0,5.0,76,0.00,,,0.00,0.000000,,2013-10-02 14:32:00,
2013-10-02 06:33:00,36.0,28.0,-100.00,WNW,290,2.0,4.0,73,0.00,,,0.00,0.000000,,2013-10-02 14:33:00,
2013-10-02 06:52:00,36.0,28.0,-100.00,WNW,290,2.0,4.0,73,0.00,,,0.00,0.000000,,2013-10-02 14:52:00,
2013-10-02 07:01:00,36.0,28.0,-100.00,WNW,290,2.0,4.0,73,0.00,,,0.00,0.000000,,2013-10-02 15:01:00,
2013-10-02 07:11:00,36.0,28.0,-100.00,WNW,290,2.0,4.0,73,0.00,,,0.00,0.000000,,2013-10-02 15:11:00,
2013-10-02 07:22:00,36.0,28.0,-100.00,WNW,290,2.0,4.0,73,0.00,,,0.00,0.000000,,2013-10-02 15:22:00,
2013-10-02 07:54:00,36.0,29.0,-100.00,NW,304,3.0,4.0,74,0.00,,,0.00,0.000000,,2013-10-02 15:54:00,
2013-10-02 08:03:00,36.0,29.0,-100.00,NW,304,3.0,4.0,74,0.00,,,0.00,0.000000,,2013-10-02 16:03:00,
2013-10-02 08:12:00,36.0,29.0,-100.00,NW,304,3.0,4.0,74,0.00,,,0.00,0.000000,,2013-10-02 16:12:00,
2013-10-02 08:23:00,36.0,29.0,-100.00,NW,304,3.0,4.0,74,0.00,,,0.00,0.000000,,2013-10-02 16:23:00,
2013-10-02 08:32:00,36.0,29.0,-100.00,NW,304,3.0,4.0,74,0.00,,,0.00,0.000000,,2013-10-02 16:32:00,
2013-10-02 08:33:00,36.0,28.0,-100.00,NW,313,4.0,5.0,72,0.00,,,0.00,3.000000,,2013-10-02 16:33:00,
2013-10-02 08:52:00,36.0,28.0,-100.00,NW,313,4.0,5.0,72,0.00,,,0.00,3.000000,,2013-10-02 16:52:00,
2013-10-02 09:02:00,36.0,28.0,-100.00,NW,313,4.0,5.0,72,0.00,,,0.00,3.000000,,2013-10-02 17:02:00,
2013-10-02 09:12:00,36.0,28.0,-100.00,NW,313,4.0,5.0,72,0.00,,,0.00,3.000000,,2013-10-02 17:12:00,
2013-10-02 09:23:00,36.0,28.0,-100.00,NW,313,4.0,5.0,72,0.00,,,0.00,3.000000,,2013-10-02 17:23:00,
2013-10-02 09:52:00,36.0,26.0,-100.00,NNW,329,2.0,5.0,67,0.00,,,0.00,65.000000,,2013-10-02 17:52:00,
2013-10-02 10:02:00,36.0,26.0,-100.00,NNW,329,2.0,5.0,67,0.00,,,0.00,65.000000,,2013-10-02 18:02:00,
2013-10-02 10:12:00,36.0,26.0,-100.00,NNW,329,2.0,5.0,67,0.00,,,0.00,65.000000,,2013-10-02 18:12:00,
2013-10-02 10:21:00,36.0,26.0,-100.00,NNW,329,2.0,5.0,67,0.00,,,0.00,65.000000,,2013-10-02 18:21:00,
2013-10-02 10:32:00,36.0,26.0,-100.00,NNW,329,2.0,5.0,67,0.00,,,0.00,65.000000,,2013-10-02 18:32:00,
2013-10-02 10:52:00,38.0,25.0,-100.00,ENE,76,2.0,4.0,60,0.00,,,0.00,160.000000,,2013-10-02 18:52:00,
2013-10-02 11:02:00,38.0,25.0,-100.00,ENE,76,2.0,4.0,60,0.00,,,0.00,160.000000,,2013-10-02 19:02:00,
2013-10-02 11:11:00,38.0,25.0,-100.00,ENE,76,2.0,4.0,60,0.00,,,0.00,160.000000,,2013-10-02 19:11:00,
2013-10-02 11:21:00,38.0,25.0,-100.00,ENE,76,2.0,4.0,60,0.00,,,0.00,160.000000,,2013-10-02 19:21:00,
2013-10-02 11:31:00,38.0,25.0,-100.00,ENE,76,2.0,4.0,60,0.00,,,0.00,160.000000,,2013-10-02 19:31:00,
2013-10-02 11:52:00,41.0,27.0,-100.00,SW,226,3.0,7.0,57,0.00,,,0.00,343.000000,,2013-10-02 19:52:00,
2013-10-02 12:02:00,41.0,27.0,-100.00,SW,226,3.0,7.0,57,0.00,,,0.00,343.000000,,2013-10-02 20:02:00,
2013-10-02 12:11:00,41.0,27.0,-100.00,SW,226,3.0,7.0,57,0.00,,,0.00,343.000000,,2013-10-02 20:11:00,
2013-10-02 12:22:00,41.0,27.0,-100.00,SW,226,3.0,7.0,57,0.00,,,0.00,343.000000,,2013-10-02 20:22:00,
2013-10-02 12:32:00,41.0,27.0,-100.00,SW,226,3.0,7.0,57,0.00,,,0.00,343.000000,,2013-10-02 20:32:00,
2013-10-02 12:33:00,42.0,24.0,-100.00,West,259,4.0,8.0,49,0.00,,,0.00,374.000000,,2013-10-02 20:33:00,
2013-10-02 12:52:00,42.0,24.0,-100.00,West,259,4.0,8.0,49,0.00,,,0.00,374.000000,,2013-10-02 20:52:00,
2013-10-02 13:01:00,42.0,24.0,-100.00,West,259,4.0,8.0,49,0.00,,,0.00,374.000000,,2013-10-02 21:01:00,
2013-10-02 13:11:00,42.0,24.0,-100.00,West,259,4.0,8.0,49,0.00,,,0.00,374.000000,,2013-10-02 21:11:00,
2013-10-02 13:22:00,42.0,24.0,-100.00,West,259,4.0,8.0,49,0.00,,,0.00,374.000000,,2013-10-02 21:22:00,
2013-10-02 13:33:00,40.0,21.0,-100.00,North,351,3.0,6.0,47,0.00,,,0.00,153.000000,,2013-10-02 21:33:00,
2013-10-02 13:55:00,40.0,21.0,-100.00,North,351,3.0,6.0,47,0.00,,,0.00,153.000000,,2013-10-02 21:55:00,
2013-10-02 14:04:00,40.0,21.0,-100.00,North,351,3.0,6.0,47,0.00,,,0.00,153.000000,,2013-10-02 22:04:00,
2013-10-02 14:13:00,40.0,21.0,-100.00,North,351,3.0,6.0,47,0.00,,,0.00,153.000000,,2013-10-02 22:13:00,
2013-10-02 14:23:00,40.0,21.0,-100.00,North,351,3.0,6.0,47,0.00,,,0.00,153.000000,,2013-10-02 22:23:00,
2013-10-02 14:33:00,41.0,23.0,-100.00,ENE,61,3.0,5.0,49,0.00,,,0.00,186.000000,,2013-10-02 22:33:00,
2013-10-02 14:53:00,41.0,23.0,-100.00,ENE,61,3.0,5.0,49,0.00,,,0.00,186.000000,,2013-10-02 22:53:00,
2013-10-02 15:03:00,41.0,23.0,-100.00,ENE,61,3.0,5.0,49,0.00,,,0.00,186.000000,,2013-10-02 23:03:00,
2013-10-02 15:12:00,41.0,23.0,-100.00,ENE,61,3.0,5.0,49,0.00,,,0.00,186.000000,,2013-10-02 23:12:00,
2013-10-02 15:22:00,41.0,23.0,-100.00,ENE,61,3.0,5.0,49,0.00,,,0.00,186.000000,,2013-10-02 23:22:00,
2013-10-02 15:52:00,41.0,24.0,-100.00,NW,318,2.0,6.0,50,0.00,,,0.00,115.000000,,2013-10-02 23:52:00,
2013-10-02 16:02:00,41.0,24.0,-100.00,NW,318,2.0,6.0,50,0.00,,,0.00,115.000000,,2013-10-03 00:02:00,
2013-10-02 16:12:00,41.0,24.0,-100.00,NW,318,2.0,6.0,50,0.00,,,0.00,115.000000,,2013-10-03 00:12:00,
2013-10-02 16:22:00,41.0,24.0,-100.00,NW,318,2.0,6.0,50,0.00,,,0.00,115.000000,,2013-10-03 00:22:00,
2013-10-02 16:32:00,41.0,24.0,-100.00,NW,318,2.0,6.0,50,0.00,,,0.00,115.000000,,2013-10-03 00:32:00,
2013-10-02 16:52:00,37.0,25.0,-100.00,WSW,255,6.0,11.0,61,0.00,,,0.00,42.000000,,2013-10-03 00:52:00,
2013-10-02 17:02:00,37.0,25.0,-100.00,WSW,255,6.0,11.0,61,0.00,,,0.00,42.000000,,2013-10-03 01:02:00,
2013-10-02 17:11:00,37.0,25.0,-100.00,WSW,255,6.0,11.0,61,0.00,,,0.00,42.000000,,2013-10-03 01:11:00,
2013-10-02 17:22:00,37.0,25.0,-100.00,WSW,255,6.0,11.0,61,0.00,,,0.00,42.000000,,2013-10-03 01:22:00,
2013-10-02 17:32:00,37.0,25.0,-100.00,WSW,255,6.0,11.0,61,0.00,,,0.00,42.000000,,2013-10-03 01:32:00,
2013-10-02 17:52:00,38.0,28.0,-100.00,NNW,331,3.0,7.0,68,0.00,,,0.00,33.000000,,2013-10-03 01:52:00,
2013-10-02 18:01:00,38.0,28.0,-100.00,NNW,331,3.0,7.0,68,0.00,,,0.00,33.000000,,2013-10-03 02:01:00,
2013-10-02 18:11:00,38.0,28.0,-100.00,NNW,331,3.0,7.0,68,0.00,,,0.00,33.000000,,2013-10-03 02:11:00,
2013-10-02 18:22:00,38.0,28.0,-100.00,NNW,331,3.0,7.0,68,0.00,,,0.00,33.000000,,2013-10-03 02:22:00,
2013-10-02 18:32:00,38.0,28.0,-100.00,NNW,331,3.0,7.0,68,0.00,,,0.00,33.000000,,2013-10-03 02:32:00,
2013-10-02 18:33:00,37.0,26.0,-100.00,NNW,344,5.0,9.0,64,0.00,,,0.00,33.000000,,2013-10-03 02:33:00,
2013-10-02 19:11:00,37.0,26.0,-100.00,NNW,344,5.0,9.0,64,0.00,,,0.00,33.000000,,2013-10-03 03:11:00,
2013-10-02 19:22:00,37.0,26.0,-100.00,NNW,344,5.0,9.0,64,0.00,,,0.00,33.000000,,2013-10-03 03:22:00,
2013-10-02 19:33:00,38.0,24.0,-100.00,NNE,15,3.0,6.0,57,0.00,,,0.00,7.000000,,2013-10-03 03:33:00,
2013-10-02 20:13:00,38.0,24.0,-100.00,NNE,15,3.0,6.0,57,0.00,,,0.00,7.000000,,2013-10-03 04:13:00,
2013-10-02 20:24:00,38.0,24.0,-100.00,NNE,15,3.0,6.0,57,0.00,,,0.00,7.000000,,2013-10-03 04:24:00,
2013-10-02 20:33:00,38.0,24.0,-100.00,NNW,343,4.0,8.0,57,0.00,,,0.00,0.000000,,2013-10-03 04:33:00,
2013-10-02 20:53:00,38.0,24.0,-100.00,NNW,343,4.0,8.0,57,0.00,,,0.00,0.000000,,2013-10-03 04:53:00,
2013-10-02 21:04:00,38.0,24.0,-100.00,NNW,343,4.0,8.0,57,0.00,,,0.00,0.000000,,2013-10-03 05:04:00,
2013-10-02 21:13:00,38.0,24.0,-100.00,NNW,343,4.0,8.0,57,0.00,,,0.00,0.000000,,2013-10-03 05:13:00,
2013-10-02 21:23:00,38.0,24.0,-100.00,NNW,343,4.0,8.0,57,0.00,,,0.00,0.000000,,2013-10-03 05:23:00,
2013-10-02 21:52:00,38.0,24.0,-100.00,NNW,342,3.0,7.0,57,0.00,,,0.00,0.000000,,2013-10-03 05:52:00,
2013-10-02 22:02:00,38.0,24.0,-100.00,NNW,342,3.0,7.0,57,0.00,,,0.00,0.000000,,2013-10-03 06:02:00,
2013-10-02 22:12:00,38.0,24.0,-100.00,NNW,342,3.0,7.0,57,0.00,,,0.00,0.000000,,2013-10-03 06:12:00,
2013-10-02 22:22:00,38.0,24.0,-100.00,NNW,342,3.0,7.0,57,0.00,,,0.00,0.000000,,2013-10-03 06:22:00,
2013-10-02 22:32:00,38.0,24.0,-100.00,NNW,342,3.0,7.0,57,0.00,,,0.00,0.000000,,2013-10-03 06:32:00,
2013-10-02 22:52:00,38.0,26.0,-100.00,NNE,23,7.0,10.0,61,0.00,,,-99.99,0.000000,,2013-10-03 06:52:00,
2013-10-02 23:02:00,38.0,26.0,-100.00,NNE,23,7.0,10.0,61,0.00,,,-99.99,0.000000,,2013-10-03 07:02:00,
2013-10-02 23:11:00,38.0,26.0,-100.00,NNE,23,7.0,10.0,61,0.00,,,-99.99,0.000000,,2013-10-03 07:11:00,
2013-10-02 23:22:00,38.0,26.0,-100.00,NNE,23,7.0,10.0,61,0.00,,,-99.99,0.000000,,2013-10-03 07:22:00,
2013-10-02 23:31:00,38.0,26.0,-100.00,NNE,23,7.0,10.0,61,0.00,,,-99.99,0.000000,,2013-10-03 07:31:00,
2013-10-02 23:52:00,38.0,23.0,-100.00,NE,37,3.0,6.0,54,0.00,,,0.00,0.000000,,2013-10-03 07:52:00,